CDT,Max TemperatureF,Mean TemperatureF,Min TemperatureF,Max Dew PointF,MeanDew PointF,Min DewpointF,Max Humidity, Mean Humidity, Min Humidity, Max Sea Level PressureIn, Mean Sea Level PressureIn, Min Sea Level PressureIn, Max VisibilityMiles, Mean VisibilityMiles, Min VisibilityMiles, Max Wind SpeedMPH, Mean Wind SpeedMPH, Max Gust SpeedMPH,PrecipitationIn, CloudCover, Events, WindDirDegrees
2012-5-1,88,77,65,70,65,62,100,72,43,30.10,30.05,29.99,10,7,0,20,8,26,0.00,4,Fog,124
2012-5-2,80,73,66,72,68,63,93,81,69,30.07,30.02,29.97,10,5,0,24,11,32,6.80,7,Fog-Rain-Thunderstorm,83
2012-5-3,84,77,70,72,69,68,93,77,61,30.06,30.02,29.98,10,9,5,18,10,22,0.12,6,Rain-Thunderstorm,130
2012-5-4,87,78,69,72,69,66,97,75,53,30.08,30.04,29.99,10,8,0,14,5,16,0.00,5,Fog,97
2012-5-5,89,78,67,71,68,64,93,70,47,30.04,29.98,29.93,10,9,1,14,4,17,0.00,4,,134
2012-5-6,89,77,65,71,66,63,93,68,43,29.98,29.95,29.89,10,7,0,29,4,35,0.71,5,Fog-Rain-Thunderstorm,85
2012-5-7,88,77,65,70,66,61,93,67,40,29.96,29.91,29.86,10,10,7,10,4,16,0.00,4,Fog-Thunderstorm,112
2012-5-8,88,76,64,70,66,62,93,71,48,29.94,29.89,29.83,10,10,10,15,5,18,0.00,4,,127
2012-5-9,81,72,62,69,65,57,93,76,58,29.92,29.87,29.84,10,10,7,18,7,23,T,5,,358
2012-5-10,82,69,55,57,52,46,93,62,30,29.98,29.94,29.91,10,10,10,13,3,15,0.00,1,,332
2012-5-11,80,69,57,61,55,48,93,64,35,30.07,30.02,29.96,10,10,10,24,7,27,T,5,Rain,109
2012-5-12,83,75,66,71,66,60,90,76,62,30.11,30.06,30.02,10,10,8,23,8,31,0.05,6,Rain,119
2012-5-13,85,75,65,69,65,60,93,71,48,30.07,30.02,29.96,10,10,7,13,6,17,T,5,,239
2012-5-14,84,72,60,66,62,57,100,74,47,30.04,29.99,29.93,10,8,0,12,4,20,0.00,4,Fog,315
2012-5-15,86,76,66,64,61,56,84,61,37,30.02,29.98,29.94,10,10,10,12,3,15,0.00,5,,349
2012-5-16,87,76,64,64,59,53,93,63,32,30.02,29.97,29.91,10,10,8,13,5,17,0.00,4,,2
2012-5-17,87,74,61,63,58,53,90,61,31,30.00,29.95,29.91,10,10,10,13,4,17,0.00,2,,11
2012-5-18,88,74,60,68,60,54,93,64,34,30.00,29.96,29.93,10,9,5,12,3,16,T,4,,42
2012-5-19,87,76,65,64,61,55,93,64,35,30.07,30.02,29.98,10,10,9,16,5,22,0.00,2,,53
2012-5-20,90,76,62,63,56,46,93,58,23,30.10,30.05,30.01,10,10,9,15,5,18,0.00,0,,21
2012-5-21,90,75,60,64,61,57,93,64,34,30.07,30.02,29.96,10,9,4,17,5,20,0.06,4,Rain-Thunderstorm,305
2012-5-22,89,76,63,65,59,52,93,61,29,29.99,29.93,29.86,10,10,9,15,4,20,0.00,2,,334
2012-5-23,91,76,60,71,62,56,87,61,34,29.90,29.86,29.81,10,9,7,15,5,18,0.00,3,,191
2012-5-24,90,80,70,70,66,60,90,65,40,29.95,29.89,29.83,10,9,7,15,6,20,0.00,2,,187
2012-5-25,92,78,64,70,63,53,93,61,28,30.08,30.03,29.93,10,9,5,10,3,17,0.00,3,,136
2012-5-26,95,82,68,68,64,61,84,58,31,30.14,30.07,30.01,10,10,10,12,3,16,0.00,3,,23
2012-5-27,97,85,72,70,66,59,82,56,30,30.02,29.97,29.91,10,10,9,10,4,15,0.00,2,,11
2012-5-28,97,84,71,72,66,61,93,62,30,29.94,29.89,29.83,10,9,6,15,5,25,0.00,2,,15
2012-5-29,95,83,71,72,68,65,93,66,39,29.90,29.86,29.82,10,9,3,14,5,20,0.01,3,Rain,285
2012-5-30,94,82,70,71,67,63,87,64,41,29.90,29.86,29.81,10,10,7,30,6,36,0.02,3,Thunderstorm,267
2012-5-31,92,80,68,70,66,64,87,64,41,29.88,29.84,29.78,10,9,4,21,7,29,0.05,4,Rain-Thunderstorm,195